Location: Bessat
(45.8735°N, 1.9924°E)
Time: 06:07:27
(UTC+00:00)

DNEPR-1 R/B - Pass Details

Date: 11 May 2021
Orbit: 587 x 1334 km, 64.6° (Epoch: 20 June)

Event Time Altitude Azimuth Distance (km) Brightness Sun altitude
Exits shadow 22:34:45 59° 176° (S) 964 4.1 -23.9°
Maximum altitude 22:35:40 70° 123° (ESE) 869 4.0 -23.9°
Drops below altitude 10° 22:40:41 10° 41° (NE) 2,214 6.8 -24.2°
Sets 22:42:50 0° 39° (NE) 3,055 7.6 -24.3°
